Baton Rouge, LA

1:37 PM CDT on October 22, 2017 (GMT -0500)
Baton Rouge Metro-Ryan

Weather History for KBTR - October, 2012

Change the Weather History Date:

Monday, October 29, 2012

  Actual Average Record
Temperature  
Mean Temperature 52 °F 66 °F  
Max Temperature 64 °F 77 °F 88 °F (2009)
Min Temperature 40 °F 54 °F 33 °F (1952)
Degree Days  
Heating Degree Days 13 3  
Month to date heating degree days 51 38  
Since 1 July heating degree days 51 40  
Cooling Degree Days 0 3  
Month to date cooling degree days 138 172  
Year to date cooling degree days 2928 2743  
Growing Degree Days 2 (Base 50)    
Moisture  
Dew Point 33 °F    
Average Humidity 53    
Maximum Humidity 79    
Minimum Humidity 27    
Precipitation  
Precipitation 0.00 in 0.15 in 4.52 in (1993)
Month to date precipitation 0.40 4.40  
Year to date precipitation 54.50 50.65  
Snow  
Snow 0.00 in - - ()
Month to date snowfall 0.0  
Since 1 July snowfall 0.0  
Since 1 September snowfall 0.0  
Snow Depth 0.00 in    
Sea Level Pressure  
Sea Level Pressure 30.17 in    
Wind  
Wind Speed 5 mph (NNW)    
Max Wind Speed 16 mph    
Max Gust Speed 23 mph    
Visibility 10 miles    
Events      
T = Trace of Precipitation, MM = Missing Value Source: NWS Daily Summary

Daily Weather History Graph

Daily Weather History Graph

Search for Another Location

Airport or City:

Trip Planner

Search our weather history database for the weather conditions in past years. The results will help you decide how hot, cold, wet, or windy it might be!

Date:

Astronomy

Oct. 29, 2012 Rise Set
Actual Time 7:17 AM CDT 6:18 PM CDT
Civil Twilight 6:52 AM CDT 6:43 PM CDT
Nautical Twilight 6:24 AM CDT 7:11 PM CDT
Astronomical Twilight 5:56 AM CDT 7:40 PM CDT
Moon 6:14 PM CDT (10/29) 7:06 AM CDT (10/29)
Length of Visible Light 11h 51m
Length of Day
11h 01m
Full, 100% of the Moon is Illuminated
Oct 29
Full
Oct 29
Full
Nov 6
Last Quarter
Nov 13
New
Nov 20
First Quarter

Hourly Weather History & Observations

Time (CDT) Temp. Windchill Dew Point Humidity Pressure Visibility Wind Dir Wind Speed Gust Speed Precip Events Conditions
12:53 AM 46.0 °F - 35.1 °F 66% 30.18 in 10.0 mi Calm Calm - N/A   Clear
1:53 AM 45.0 °F 42.6 °F 35.1 °F 68% 30.18 in 10.0 mi North 4.6 mph - N/A   Clear
2:53 AM 45.0 °F 41.8 °F 35.1 °F 68% 30.17 in 10.0 mi North 5.8 mph - N/A   Clear
3:53 AM 43.0 °F - 35.1 °F 74% 30.17 in 10.0 mi Calm Calm - N/A   Clear
4:53 AM 42.1 °F - 35.1 °F 76% 30.17 in 10.0 mi Calm Calm - N/A   Clear
5:53 AM 41.0 °F - 35.1 °F 79% 30.19 in 10.0 mi Calm Calm - N/A   Clear
6:53 AM 39.9 °F - 34.0 °F 79% 30.20 in 10.0 mi Calm Calm - N/A   Clear
7:53 AM 42.1 °F 40.2 °F 35.1 °F 76% 30.22 in 10.0 mi Variable 3.5 mph - N/A   Clear
8:53 AM 46.9 °F - 35.1 °F 63% 30.24 in 10.0 mi North 6.9 mph - N/A   Clear
9:53 AM 52.0 °F - 35.1 °F 53% 30.24 in 10.0 mi Variable 6.9 mph - N/A   Clear
10:53 AM 55.9 °F - 32.0 °F 40% 30.23 in 10.0 mi NNE 12.7 mph 18.4 mph N/A   Clear
11:53 AM 59.0 °F - 32.0 °F 36% 30.21 in 10.0 mi NNW 8.1 mph - N/A   Clear
12:53 PM 61.0 °F - 30.9 °F 32% 30.18 in 10.0 mi NNW 11.5 mph 20.7 mph N/A   Clear
1:53 PM 63.0 °F - 28.9 °F 28% 30.15 in 10.0 mi NNW 9.2 mph 20.7 mph N/A   Clear
2:53 PM 64.4 °F - 30.2 °F 28% 30.13 in 10.0 mi NNW 9.2 mph 17.3 mph N/A   Clear
3:53 PM 64.0 °F - 30.9 °F 29% 30.11 in 10.0 mi North 9.2 mph 17.3 mph N/A   Clear
4:53 PM 62.1 °F - 28.9 °F 29% 30.11 in 10.0 mi NNW 9.2 mph 19.6 mph N/A   Clear
5:53 PM 59.0 °F - 30.0 °F 33% 30.11 in 10.0 mi NNW 5.8 mph - N/A   Clear
6:53 PM 54.0 °F - 32.0 °F 43% 30.12 in 10.0 mi Calm Calm - N/A   Clear
7:53 PM 50.0 °F - 35.1 °F 57% 30.14 in 10.0 mi NW 4.6 mph - N/A   Clear
8:53 PM 50.0 °F - 34.0 °F 54% 30.14 in 10.0 mi NW 4.6 mph - N/A   Clear
9:53 PM 50.0 °F - 33.1 °F 52% 30.15 in 10.0 mi NNW 3.5 mph - N/A   Clear
10:53 PM 48.0 °F - 32.0 °F 54% 30.14 in 10.0 mi Calm Calm - N/A   Clear
11:53 PM 46.9 °F - 33.1 °F 59% 30.14 in 10.0 mi NNW 3.5 mph - N/A   Clear